When you browse on this site, cookies collect data to enhance your experience and personalize the content and advertising you see.
Visit our Privacy Policy to learn more. By continuing to use the site, you agree to this use of cookies and data.
  • In Österreich
  • Länderverzeichnis
  • Für 7 Tage
  • Wassertemperatur
  • Wetterkarte
  • News
  • Widgets
  • user-avatar
    Anmelden

    Stündliche Wetter Gdansk

    Heute, 18 September, Mittwoch

    Zeit Temperatur Niederschläge Wind Luftdruck Luftfeuchtigkeit
    00:00 +6°C° 1 mm 9 m/S 747 mmHg 84%
    01:00 +7°C° 0 mm 8 m/S 748 mmHg 88%
    02:00 +7°C° 0.5 mm 9 m/S 749 mmHg 85%
    03:00 +7°C° 0.5 mm 9 m/S 749 mmHg 83%
    04:00 +7°C° 0.5 mm 10 m/S 750 mmHg 81%
    05:00 +7°C° 0.1 mm 10 m/S 751 mmHg 80%
    06:00 +8°C° 0.1 mm 9 m/S 752 mmHg 78%
    07:00 +8°C° 0.1 mm 9 m/S 753 mmHg 76%
    08:00 +10°C° 0.1 mm 9 m/S 753 mmHg 71%
    09:00 +11°C° 0.1 mm 9 m/S 754 mmHg 66%
    10:00 +12°C° 0.1 mm 9 m/S 754 mmHg 61%
    11:00 +12°C° 0.1 mm 9 m/S 755 mmHg 60%
    12:00 +13°C° 0.1 mm 9 m/S 755 mmHg 59%
    13:00 +13°C° 0.1 mm 9 m/S 755 mmHg 58%
    14:00 +12°C° 0.1 mm 8 m/S 755 mmHg 58%
    15:00 +12°C° 0.1 mm 8 m/S 756 mmHg 59%
    16:00 +12°C° 0.1 mm 7 m/S 756 mmHg 59%
    17:00 +11°C° 0 mm 6 m/S 756 mmHg 65%
    18:00 +9°C° 0 mm 5 m/S 757 mmHg 70%
    19:00 +8°C° 0 mm 4 m/S 757 mmHg 76%
    20:00 +8°C° 0.1 mm 4 m/S 757 mmHg 77%
    21:00 +8°C° 0.1 mm 4 m/S 758 mmHg 79%
    22:00 +7°C° 0.1 mm 4 m/S 758 mmHg 80%
    23:00 +7°C° 0.1 mm 4 m/S 758 mmHg 81%

    Morgen, 19 September, Donnerstag

    Zeit Temperatur Niederschläge Wind Luftdruck Luftfeuchtigkeit
    00:00 +7°C° 0.1 mm 4 m/S 758 mmHg 82%
    01:00 +7°C° 0.1 mm 4 m/S 759 mmHg 83%
    02:00 +7°C° 0 mm 4 m/S 759 mmHg 83%
    03:00 +7°C° 0 mm 4 m/S 759 mmHg 82%
    04:00 +7°C° 0 mm 4 m/S 759 mmHg 82%
    05:00 +7°C° 0 mm 4 m/S 760 mmHg 80%
    06:00 +8°C° 0 mm 4 m/S 760 mmHg 78%
    07:00 +10°C° 0 mm 4 m/S 760 mmHg 75%
    08:00 +10°C° 0.1 mm 5 m/S 761 mmHg 69%
    09:00 +11°C° 0.1 mm 6 m/S 761 mmHg 63%
    10:00 +14°C° 0.1 mm 6 m/S 762 mmHg 57%
    11:00 +14°C° 0 mm 7 m/S 762 mmHg 55%
    12:00 +14°C° 0 mm 7 m/S 762 mmHg 53%
    13:00 +13°C° 0 mm 8 m/S 762 mmHg 51%
    14:00 +12°C° 0 mm 8 m/S 762 mmHg 53%
    15:00 +12°C° 0 mm 7 m/S 762 mmHg 55%
    16:00 +11°C° 0 mm 7 m/S 762 mmHg 57%
    17:00 +10°C° 0 mm 6 m/S 762 mmHg 61%
    18:00 +9°C° 0 mm 5 m/S 763 mmHg 65%
    19:00 +9°C° 0 mm 3 m/S 763 mmHg 69%
    20:00 +8°C° 0 mm 4 m/S 763 mmHg 72%
    21:00 +8°C° 0 mm 4 m/S 763 mmHg 75%
    22:00 +7°C° 0 mm 4 m/S 763 mmHg 78%
    23:00 +8°C° 0 mm 3 m/S 763 mmHg 78%

    übermorgen, 20 September, Freitag

    Zeit Temperatur Niederschläge Wind Luftdruck Luftfeuchtigkeit
    00:00 +8°C° 0 mm 3 m/S 763 mmHg 79%
    01:00 +8°C° 0 mm 3 m/S 763 mmHg 79%
    02:00 +7°C° 0 mm 3 m/S 763 mmHg 77%
    03:00 +7°C° 0 mm 3 m/S 763 mmHg 76%
    04:00 +7°C° 0 mm 3 m/S 763 mmHg 75%
    05:00 +8°C° 0 mm 3 m/S 763 mmHg 74%
    06:00 +8°C° 0 mm 3 m/S 763 mmHg 72%
    07:00 +8°C° 0 mm 4 m/S 763 mmHg 71%
    08:00 +10°C° 0 mm 4 m/S 764 mmHg 63%
    09:00 +12°C° 0 mm 4 m/S 764 mmHg 55%
    10:00 +14°C° 0 mm 3 m/S 764 mmHg 46%
    11:00 +14°C° 0 mm 3 m/S 764 mmHg 45%
    12:00 +16°C° 0 mm 3 m/S 764 mmHg 43%
    13:00 +17°C° 0 mm 3 m/S 764 mmHg 41%
    14:00 +16°C° 0 mm 3 m/S 763 mmHg 47%
    15:00 +16°C° 0 mm 2 m/S 763 mmHg 52%
    16:00 +15°C° 0 mm 2 m/S 763 mmHg 58%
    17:00 +14°C° 0 mm 2 m/S 763 mmHg 64%
    18:00 +13°C° 0 mm 2 m/S 763 mmHg 71%
    19:00 +11°C° 0 mm 3 m/S 763 mmHg 78%
    20:00 +11°C° 0 mm 3 m/S 763 mmHg 81%
    21:00 +11°C° 0 mm 4 m/S 763 mmHg 85%
    22:00 +11°C° 0 mm 4 m/S 762 mmHg 88%
    23:00 +11°C° 0 mm 4 m/S 762 mmHg 90%

    21 September, Samstag

    Zeit Temperatur Niederschläge Wind Luftdruck Luftfeuchtigkeit
    00:00 +10°C° 0 mm 5 m/S 762 mmHg 91%
    01:00 +10°C° 0 mm 5 m/S 762 mmHg 93%
    02:00 +10°C° 0 mm 5 m/S 762 mmHg 94%
    03:00 +10°C° 0 mm 5 m/S 762 mmHg 94%
    04:00 +9°C° 0 mm 5 m/S 762 mmHg 95%
    05:00 +10°C° 0 mm 5 m/S 762 mmHg 93%
    06:00 +12°C° 0 mm 5 m/S 762 mmHg 91%
    07:00 +11°C° 0 mm 6 m/S 761 mmHg 90%
    08:00 +13°C° 0 mm 6 m/S 762 mmHg 85%
    09:00 +14°C° 0 mm 6 m/S 762 mmHg 80%
    10:00 +16°C° 0 mm 6 m/S 762 mmHg 75%
    11:00 +16°C° 0 mm 6 m/S 762 mmHg 71%
    12:00 +17°C° 0 mm 6 m/S 762 mmHg 67%
    13:00 +19°C° 0 mm 5 m/S 762 mmHg 62%
    14:00 +19°C° 0 mm 5 m/S 761 mmHg 63%
    15:00 +19°C° 0 mm 5 m/S 761 mmHg 64%
    16:00 +19°C° 0 mm 5 m/S 761 mmHg 65%
    17:00 +17°C° 0 mm 4 m/S 761 mmHg 72%
    18:00 +16°C° 0 mm 3 m/S 760 mmHg 79%
    19:00 +13°C° 0 mm 3 m/S 760 mmHg 86%
    20:00 +13°C° 0 mm 3 m/S 760 mmHg 87%
    21:00 +12°C° 0 mm 3 m/S 760 mmHg 89%
    22:00 +12°C° 0 mm 3 m/S 760 mmHg 90%
    23:00 +12°C° 0 mm 3 m/S 760 mmHg 90%

    22 September, Sonntag

    Zeit Temperatur Niederschläge Wind Luftdruck Luftfeuchtigkeit
    00:00 +11°C° 0 mm 3 m/S 760 mmHg 90%
    01:00 +11°C° 0 mm 3 m/S 760 mmHg 91%
    02:00 +11°C° 0 mm 3 m/S 760 mmHg 90%
    03:00 +11°C° 0 mm 3 m/S 759 mmHg 89%
    04:00 +12°C° 0 mm 2 m/S 759 mmHg 88%
    05:00 +12°C° 0 mm 2 m/S 759 mmHg 84%
    06:00 +13°C° 0 mm 2 m/S 759 mmHg 80%
    07:00 +13°C° 0 mm 1 m/S 759 mmHg 76%
    08:00 +15°C° 0 mm 2 m/S 759 mmHg 69%
    09:00 +17°C° 0 mm 2 m/S 759 mmHg 61%
    10:00 +18°C° 0 mm 3 m/S 759 mmHg 53%
    11:00 +19°C° 0 mm 3 m/S 758 mmHg 50%
    12:00 +20°C° 0 mm 3 m/S 758 mmHg 46%
    13:00 +21°C° 0 mm 3 m/S 757 mmHg 43%
    14:00 +21°C° 0 mm 3 m/S 757 mmHg 45%
    15:00 +20°C° 0 mm 3 m/S 757 mmHg 47%
    16:00 +20°C° 0 mm 3 m/S 756 mmHg 49%
    17:00 +18°C° 0 mm 3 m/S 756 mmHg 53%
    18:00 +17°C° 0 mm 3 m/S 756 mmHg 57%
    19:00 +15°C° 0 mm 2 m/S 756 mmHg 62%
    20:00 +14°C° 0 mm 2 m/S 756 mmHg 63%
    21:00 +13°C° 0 mm 3 m/S 756 mmHg 64%
    22:00 +12°C° 0 mm 3 m/S 756 mmHg 66%
    23:00 +12°C° 0 mm 3 m/S 755 mmHg 67%

    23 September, Montag

    Zeit Temperatur Niederschläge Wind Luftdruck Luftfeuchtigkeit
    00:00 +11°C° 0 mm 3 m/S 755 mmHg 68%
    01:00 +11°C° 0 mm 3 m/S 755 mmHg 70%
    02:00 +11°C° 0 mm 3 m/S 755 mmHg 71%
    03:00 +10°C° 0 mm 3 m/S 755 mmHg 72%
    04:00 +10°C° 0 mm 2 m/S 754 mmHg 73%
    05:00 +10°C° 0 mm 2 m/S 754 mmHg 73%
    06:00 +12°C° 0 mm 2 m/S 754 mmHg 72%
    07:00 +12°C° 0 mm 2 m/S 754 mmHg 71%
    08:00 +14°C° 0 mm 2 m/S 755 mmHg 66%
    09:00 +16°C° 0 mm 3 m/S 755 mmHg 60%
    10:00 +18°C° 0 mm 3 m/S 755 mmHg 55%
    11:00 +19°C° 0 mm 3 m/S 755 mmHg 53%
    12:00 +19°C° 0 mm 3 m/S 754 mmHg 51%
    13:00 +20°C° 0 mm 3 m/S 754 mmHg 49%
    14:00 +20°C° 0 mm 4 m/S 754 mmHg 54%
    15:00 +19°C° 0 mm 4 m/S 754 mmHg 58%
    16:00 +19°C° 0 mm 4 m/S 754 mmHg 62%
    17:00 +17°C° 0 mm 4 m/S 754 mmHg 70%
    18:00 +15°C° 0 mm 4 m/S 754 mmHg 78%
    19:00 +13°C° 0 mm 4 m/S 754 mmHg 85%
    20:00 +13°C° 0 mm 4 m/S 754 mmHg 87%
    21:00 +12°C° 0 mm 4 m/S 754 mmHg 88%
    22:00 +12°C° 0 mm 3 m/S 754 mmHg 90%
    23:00 +11°C° 0 mm 3 m/S 755 mmHg 90%
    Mehr zeigen